CREW DRAGON 1 (44063 NORAD) Tracking and Keplerian Element Data

This shows tracking and keplerian element data for the satellite.

Feedback or suggestion? Click here.




ElementValue
Catalog44063
NameCREW DRAGON 1
Epoch Orbit94
Epoch Day67.36954039
Epoch Year2019
RAAN142.4692
Inclination51.6381
Eccentricity0.0012936
Argument of Perigee169.6921
Mean Anonmoly292.6127
Mean Motion15.54661212
Decay Rate6.286E-05
L11 44063U 19011A 19067.36954039 .00006286 00000-0 10000-3 0 9997
L22 44063 51.6381 142.4692 0012936 169.6921 292.6127 15.54661212 941

Live tracking and technical data element details for CREW DRAGON 1 (NORAD 44063). CREW DRAGON 1 can be tracked NOW for your location showing map with azimuth and elevation plus other details from your city location.

Track the satellite on the map from your city or location and see movement details for azimuth, elevation, latitude, longitude, range, height, and movement on the map or in text.







IsCatalogInMostPopularTable: catalog: 44063, numindb: 218
Update: records affected: 1



GetName: 44063 CREW DRAGON 1

Hit Count: updated at: Mon, 22 Jul 2019 16:33:59 GMT